Location: Unspecified
(0.0000°N, 0.0000°E)
Time: 04:12:04
(UTC+02:00)

Iridium 39 - Visible Passes

Search period start: 02 July 2016 00:00
Search period end: 12 July 2016 00:00
Orbit: 757 x 763 km, 86.4° (Epoch: 01 July)

Date Brightness Start Highest point End Pass type
(mag) Time Alt. Az. Time Alt. Az. Time Alt. Az.
02 Jul 5.8 06:32:58 10° N 06:38:04 75° W 06:43:10 10° S visible
03 Jul 7.1 05:54:46 10° NNE 05:59:34 41° E 06:03:15 16° SSE visible
04 Jul 8.5 05:18:01 10° NE 05:21:04 16° E 05:23:27 12° ESE visible
04 Jul 6.9 06:56:51 10° NNW 07:01:06 27° W 07:03:28 19° SW visible
05 Jul 5.8 06:17:31 10° N 06:22:36 72° W 06:23:48 51° SSW visible
06 Jul 7.0 05:39:17 10° NNE 05:44:06 43° E 05:44:16 43° E visible
07 Jul 8.5 05:02:25 10° NE 05:04:48 16° E 05:04:48 16° E visible
07 Jul 7.1 06:41:27 10° NW 06:44:50 25° WNW 06:44:50 25° WNW visible
08 Jul 6.7 06:02:04 10° N 06:05:27 42° NNW 06:05:27 42° NNW visible
09 Jul 7.9 05:23:47 10° NNE 05:26:09 26° NNE 05:26:09 26° NNE visible
10 Jul 9.0 04:46:50 10° NE 04:46:53 10° NE 04:46:53 10° NE visible
10 Jul 8.0 06:26:03 10° NW 06:26:56 14° NW 06:26:56 14° NW visible
11 Jul 8.1 05:46:37 10° N 05:47:44 17° N 05:47:44 17° N visible
